Location: Zagreb
(45.8000°N, 16.0000°E)
Time: 08:17:30
(UTC+02:00)

Courier 1B - Pass Details

Date: 16 August 2020
Orbit: 962 x 1209 km, 28.3° (Epoch: 27 September)

Event Time Altitude Azimuth Distance (km) Brightness Sun altitude
Rises 21:14:19 0° 249° (WSW) 3,994 11.2 -12.0°
Reaches altitude 10° 21:19:01 10° 224° (SW) 2,974 10.1 -12.7°
Maximum altitude 21:22:03 13° 199° (SSW) 2,712 9.7 -13.2°
Drops below altitude 10° 21:25:02 10° 174° (S) 2,892 9.6 -13.6°
Enters shadow 21:25:58 - 167° (SSE) 3,027 9.6 -13.7°
Sets 21:29:28 0° 148° (SSE) 3,784 - -14.2°
